{"data":{"norad_id":67607,"epoch":"2026-05-25T03:18:39.672288Z","epoch_age_seconds":72985,"freshness":"FRESH","line1":"1 67607U 26018U   26145.13795917  .00012770  00000+0  39711-3 0  9993","line2":"2 67607  97.2848 210.3222 0000440 131.0659 229.0622 15.33452664 19058","mean_motion":15.33452664,"eccentricity":4.4e-5,"inclination_deg":97.2848,"raan_deg":210.3222,"arg_perigee_deg":131.0659,"mean_anomaly_deg":229.0622,"bstar":0.00039711,"rev_number":1905,"period_min":93.905735325652,"perigee_km":465.21925097682,"apogee_km":465.82149282555,"semimajor_km":6843.6573719012,"source":"CELESTRAK","updated_at":"2026-05-25T13:38:21.647171Z"}}